Hourly Data Report for October 02, 2017

All times are specified in Local Standard Time (LST). Add 1 hour to adjust for Daylight Saving Time where and when it is observed.

WESTERN HEAD
NOVA SCOTIA

43°59'24.070" N
64°39'51.008" W
10.10 m
8206240
71411
WWE

Download Data

Hourly Data (October 2017)
Hourly Data Report for October 2, 2017
Temp Definition
°C
Dew Point Temp Definition
°C
Rel Hum Definition
%
Wind Dir Definition
10's deg

Wind Spd Definition
km/h
Visibility Definition
km
Stn Press Definition
kPa
Hmdx Definition


Wind Chill Definition


Weather Definition


TIME
00:00 8.3 6.0 86 25 5   101.87     LegendNANA
01:00 7.9 6.7 92 29 9   101.85     LegendNANA
02:00 8.3 7.3 94 30 14   101.83     LegendNANA
03:00 8.9 7.4 90 31 22   101.79     LegendNANA
04:00 8.5 7.0 90 32 22   101.84     LegendNANA
05:00 9.4 7.0 85 33 19   101.94     LegendNANA
06:00 9.3 7.0 86 33 16   102.05     LegendNANA
07:00 9.9 7.6 85 33 15   102.10     LegendNANA
08:00 12.6 8.1 74 34 18   102.16     LegendNANA
09:00 14.5 8.7 68 35 15   102.23     LegendNANA
10:00 16.0 9.1 64 1 14   102.28     LegendNANA
11:00 17.4 8.7 57 36 12   102.30     LegendNANA
12:00 18.0 8.8 55 36 10   102.32     LegendNANA
13:00 17.6 6.4 48 35 17   102.33     LegendNANA
14:00 16.9 5.5 47 34 19   102.38     LegendNANA
15:00 16.5 5.6 49 36 14   102.47     LegendNANA
16:00 14.4 3.0 46 36 18   102.57     LegendNANA
17:00 13.2 4.6 56 35 16   102.67     LegendNANA
18:00 11.0 4.3 63 36 16   102.82     LegendNANA
19:00 9.4 3.9 69 35 14   102.94     LegendNANA
20:00 9.1 4.7 74 36 13   103.06     LegendNANA
21:00 8.2 4.7 79 36 13   103.15     LegendNANA
22:00 6.7 3.9 82 35 10   103.23     LegendNANA
23:00 6.7 3.6 81 36 14   103.25     LegendNANA

Notes on Data Quality.

Legend

  • E = Estimated
  • M = Missing
  • NA = Not Available
  • ‡ = Partner data that is not subject to review by the National Climate Archives
Date modified: